This demonstration page uses our WeatherBlox Daily Observations layout. Learn more.

Left ArrowRight Arrow

Hourly Observations for May 9, 2019

Temp ( °F °C ) Dew Point ( °F °C ) Humidity (%) Winds ( mph kmh ) Pressure ( in mb ) Visibility ( mi km ) Precip ( " mm )
12:29 am 00:29 Cloudy with Drizzle 43 6.1 38 3.3 82 82 NNW 22 35 29.86 1011 7 11 0.00 0.03
12:52 am 00:52 Cloudy 42 5.6 36 2.2 79 79 NNW 22 35 29.84 1011 10 16 0.00 0.03
1:06 am 01:06 Cloudy 42 5.6 36 2.2 79 79 NNW 23 37 29.87 1011 10 16 0.00 0.00
1:52 am 01:52 Cloudy 41 5 35 1.7 79 79 NNW 18 30 29.86 1011 10 16 0.00 0.00
2:52 am 02:52 Cloudy 40 4.4 34 1.1 79 79 NNW 25 41 29.88 1012 10 16 0.00 0.00
3:52 am 03:52 Cloudy 40 4.4 33 0.6 77 77 NNW 24 39 29.89 1012 10 16 0.00 0.00
4:52 am 04:52 Cloudy 41 5 33 0.6 73 73 NNW 25 41 29.91 1013 10 16 0.00 0.00
5:52 am 05:52 Cloudy 41 5 33 0.6 73 73 NNW 20 31 29.92 1013 10 16 0.00 0.00
6:52 am 06:52 Cloudy 41 5 34 1.1 76 76 NNW 20 31 29.94 1014 10 16 0.00 0.00
7:52 am 07:52 Cloudy 42 5.6 34 1.1 73 73 NNW 24 39 29.95 1014 10 16 0.00 0.00
8:52 am 08:52 Cloudy 43 6.1 35 1.7 74 74 N 16 26 29.96 1015 10 16 0.00 0.00
9:52 am 09:52 Cloudy 45 7.2 37 2.8 74 74 NNW 21 33 29.98 1015 10 16 0.00 0.00
10:52 am 10:52 Cloudy 47 8.3 37 2.8 69 69 N 17 28 30.01 1016 10 16 0.00 0.00
11:26 am 11:26 Cloudy 48 8.9 37 2.8 66 66 N 14 22 30.03 1017 10 16 0.00 0.00
11:47 am 11:47 Cloudy 48 9 37 3 66 66 NNW 14 22 30.04 1017 10 16 0.00 0.00
11:52 am 11:52 Cloudy 48 8.9 37 2.8 66 66 N 13 20 30.03 1017 10 16 0.00 0.00
12:18 pm 12:18 Cloudy 50 10 37 2.8 61 61 N 17 28 30.04 1017 10 16 0.00 0.00
12:52 pm 12:52 Cloudy 49 9.4 37 2.8 64 64 N 17 28 30.04 1017 10 16 0.00 0.00
1:49 pm 13:49 Cloudy 52 11 37 3 58 58 N 20 31 30.03 1017 10 16 0.00 0.00
1:52 pm 13:52 Cloudy 52 11.1 38 3.3 59 59 N 20 31 30.02 1017 10 16 0.00 0.00
2:52 pm 14:52 Cloudy 52 11.1 37 2.8 57 57 N 17 28 30.05 1018 10 16 0.00 0.00
3:52 pm 15:52 Cloudy 53 11.7 38 3.3 57 57 N 16 26 30.06 1018 10 16 0.00 0.00
4:52 pm 16:52 Cloudy 53 11.7 37 2.8 55 55 N 13 20 30.06 1018 10 16 0.00 0.00
5:52 pm 17:52 Cloudy 53 11.7 39 3.9 59 59 N 14 22 30.05 1018 10 16 0.00 0.00
6:52 pm 18:52 Cloudy 54 12.2 39 3.9 57 57 N 10 17 30.05 1018 10 16 0.00 0.00
7:52 pm 19:52 Cloudy 52 11.1 39 3.9 61 61 N 13 20 30.06 1018 10 16 0.00 0.00
8:52 pm 20:52 Cloudy 50 10 39 3.9 66 66 N 7 11 30.09 1019 10 16 0.00 0.00
9:52 pm 21:52 Cloudy 49 9.4 40 4.4 71 71 NW 3 6 30.13 1020 10 16 0.00 0.00
10:52 pm 22:52 Cloudy 48 8.9 40 4.4 74 74 NW 5 7 30.15 1021 10 16 0.00 0.00
11:52 pm 23:52 Mostly Cloudy 48 8.9 40 4.4 74 74 Calm 30.16 1021 10 16 0.00 0.00

Powered by AerisWeather